Kenansville, NC

2:13 PM EST on December 06, 2019 (GMT -0500)
Duplin County

Weather History for KDPL - August, 2019

Change the Weather History Date:

Monday, August 19, 2019

  Actual Average (WUND) Record (WUND)
Temperature  
Mean Temperature 83 °F -  
Max Temperature 93 °F - - (-1)
Min Temperature 73 °F - - (-1)
Cooling Degree Days 18    
Growing Degree Days 33 (Base 50)    
Moisture  
Dew Point 75 °F    
Average Humidity 77    
Maximum Humidity 100    
Minimum Humidity 56    
Precipitation  
Precipitation 0.00 in - - ()
Sea Level Pressure  
Sea Level Pressure 30.06 in    
Wind  
Wind Speed 2 mph (SW)    
Max Wind Speed 10 mph    
Max Gust Speed -    
Visibility 7 miles    
Events      
Averages and records for this station are not official NWS values.
T = Trace of Precipitation, MM = Missing Value Source: NWS Daily Summary

Daily Weather History Graph

Daily Weather History Graph

Search for Another Location

Airport or City:

Astronomy

Aug. 19, 2019 Rise Set
Actual Time 6:34 AM EDT 7:55 PM EDT
Civil Twilight 6:08 AM EDT 8:22 PM EDT
Nautical Twilight 5:36 AM EDT 8:53 PM EDT
Astronomical Twilight 5:03 AM EDT 9:27 PM EDT
Moon 10:24 PM EDT (8/19) 10:06 AM EDT (8/19)
Length of Visible Light 14h 14m
Length of Day
13h 20m
Waning Gibbous, 85% of the Moon is Illuminated
Aug 19
Waning Gibbous
Aug 23
Last Quarter
Aug 30
New
Sep 5
First Quarter
Sep 14
Full

Hourly Weather History & Observations

Time (EDT) Temp. Heat Index Dew Point Humidity Pressure Visibility Wind Dir Wind Speed Gust Speed Precip Events Conditions
12:15 AM 75.2 °F - - N/A% 30.04 in 3.5 mi Calm Calm - N/A   Clear
12:35 AM 75.2 °F - - N/A% 30.04 in 3.5 mi Calm Calm - N/A   Clear
12:55 AM 75.2 °F - - N/A% 30.04 in 3.5 mi Calm Calm - N/A   Clear
1:15 AM 75.2 °F - - N/A% 30.04 in 3.0 mi Calm Calm - N/A   Clear
1:35 AM 75.2 °F - - N/A% 30.03 in 3.5 mi Calm Calm - N/A   Clear
1:55 AM 75.2 °F - - N/A% 30.04 in 3.5 mi Calm Calm - N/A   Clear
2:15 AM 75.2 °F - - N/A% 30.04 in 3.0 mi Calm Calm - N/A   Clear
2:35 AM 75.2 °F - - N/A% 30.04 in 3.5 mi Calm Calm - N/A   Clear
2:55 AM 75.2 °F - - N/A% 30.04 in 3.5 mi Calm Calm - N/A   Clear
3:15 AM 75.2 °F - - N/A% 30.03 in 3.0 mi SW 3.5 mph - N/A   Clear
3:35 AM 75.2 °F - - N/A% 30.03 in 3.0 mi Calm Calm - N/A   Clear
3:55 AM 75.2 °F - - N/A% 30.03 in 3.0 mi SW 3.5 mph - N/A   Clear
4:15 AM 75.2 °F - - N/A% 30.03 in 3.5 mi SW 3.5 mph - N/A   Clear
4:35 AM 75.2 °F - - N/A% 30.03 in 3.0 mi Calm Calm - N/A   Clear
4:55 AM 75.2 °F - - N/A% 30.02 in 3.0 mi Calm Calm - N/A   Clear
5:35 AM 75.2 °F - - N/A% 30.04 in 3.0 mi Calm Calm - N/A   Scattered Clouds
5:55 AM 75.2 °F - - N/A% 30.05 in 3.0 mi SW 3.5 mph - N/A   Overcast
6:15 AM 75.2 °F - - N/A% 30.05 in 3.0 mi Calm Calm - N/A   Overcast
6:35 AM 75.2 °F - - N/A% 30.06 in 3.5 mi SW 4.6 mph - N/A   Overcast
6:55 AM 75.2 °F - - N/A% 30.07 in 3.0 mi Calm Calm - N/A   Overcast
7:15 AM 75.2 °F - - N/A% 30.08 in 3.5 mi Calm Calm - N/A   Overcast
7:35 AM 77.0 °F - - N/A% 30.08 in 4.0 mi Calm Calm - N/A   Overcast
7:55 AM 77.0 °F - 77.0 °F 100% 30.09 in 4.0 mi SW 3.5 mph - N/A   Mostly Cloudy
8:15 AM 77.0 °F - 77.0 °F 100% 30.09 in 4.0 mi WSW 3.5 mph - N/A   Mostly Cloudy
8:35 AM 78.8 °F - 77.0 °F 94% 30.08 in 5.0 mi SW 4.6 mph - N/A   Scattered Clouds
9:15 AM 80.6 °F 87.1 °F 77.0 °F 89% 30.08 in 7.0 mi SW 3.5 mph - N/A   Clear
9:35 AM 82.4 °F 90.9 °F 77.0 °F 84% 30.08 in 7.0 mi WSW 4.6 mph - N/A   Clear
9:55 AM 82.4 °F 90.9 °F 77.0 °F 84% 30.08 in 10.0 mi SW 3.5 mph - N/A   Clear
10:15 AM 84.2 °F 94.1 °F 77.0 °F 79% 30.08 in 7.0 mi WSW 4.6 mph - N/A   Clear
10:35 AM 86.0 °F 96.9 °F 77.0 °F 74% 30.08 in 10.0 mi WSW 4.6 mph - N/A   Clear
10:55 AM 87.8 °F 99.7 °F 77.0 °F 70% 30.08 in 7.0 mi Calm Calm - N/A   Clear
11:15 AM 87.8 °F 99.7 °F 77.0 °F 70% 30.08 in 10.0 mi WSW 3.5 mph - N/A   Clear
11:35 AM 87.8 °F 99.7 °F 77.0 °F 70% 30.08 in 7.0 mi Calm Calm - N/A   Scattered Clouds
11:55 AM 87.8 °F 99.7 °F 77.0 °F 70% 30.08 in 10.0 mi SW 3.5 mph - N/A   Mostly Cloudy
12:15 PM 89.6 °F 102.2 °F 77.0 °F 66% 30.07 in 10.0 mi Calm Calm - N/A   Mostly Cloudy
12:35 PM 89.6 °F 102.2 °F 77.0 °F 66% 30.07 in 10.0 mi SSE 5.8 mph - N/A   Mostly Cloudy
12:55 PM 89.6 °F 102.2 °F 77.0 °F 66% 30.07 in 10.0 mi SSW 3.5 mph - N/A   Scattered Clouds
1:15 PM 91.4 °F 102.5 °F 75.2 °F 59% 30.07 in 10.0 mi WSW 5.8 mph - N/A   Scattered Clouds
1:35 PM 87.8 °F 99.7 °F 77.0 °F 70% 30.07 in 10.0 mi Calm Calm - N/A   Scattered Clouds
1:55 PM 89.6 °F 102.2 °F 77.0 °F 66% 30.06 in 10.0 mi Calm Calm - N/A   Mostly Cloudy
2:15 PM 91.4 °F 102.5 °F 75.2 °F 59% 30.06 in 10.0 mi South 4.6 mph - N/A   Scattered Clouds
2:35 PM 91.4 °F 102.5 °F 75.2 °F 59% 30.04 in 10.0 mi SW 4.6 mph - N/A   Scattered Clouds
2:55 PM 93.2 °F 105.0 °F 75.2 °F 56% 30.04 in 10.0 mi WSW 6.9 mph - N/A   Scattered Clouds
3:15 PM 91.4 °F 102.5 °F 75.2 °F 59% 30.03 in 10.0 mi SSW 4.6 mph - N/A   Mostly Cloudy
3:35 PM 93.2 °F 105.0 °F 75.2 °F 56% 30.02 in 10.0 mi SW 5.8 mph - N/A   Mostly Cloudy
3:55 PM 93.2 °F 107.2 °F 77.0 °F 59% 30.01 in 10.0 mi SSW 4.6 mph - N/A   Scattered Clouds
4:15 PM 91.4 °F 102.5 °F 75.2 °F 59% 30.01 in 10.0 mi SW 5.8 mph - N/A   Scattered Clouds
4:35 PM 91.4 °F 105.1 °F 77.0 °F 63% 30.02 in 10.0 mi SW 6.9 mph - N/A   Scattered Clouds
4:55 PM 89.6 °F 102.2 °F 77.0 °F 66% 30.01 in 10.0 mi WSW 10.4 mph - N/A   Clear
5:15 PM 89.6 °F 99.8 °F 75.2 °F 62% 30.01 in 10.0 mi WSW 8.1 mph - N/A   Scattered Clouds
5:35 PM 87.8 °F 97.6 °F 75.2 °F 66% 30.02 in 10.0 mi Calm Calm - N/A   Scattered Clouds
5:55 PM 86.0 °F 95.1 °F 75.2 °F 70% 30.02 in 10.0 mi West 4.6 mph - N/A   Scattered Clouds
6:15 PM 84.2 °F 90.9 °F 73.4 °F 70% 30.05 in 10.0 mi NNW 6.9 mph - N/A   Scattered Clouds
6:35 PM 82.4 °F 87.2 °F 71.6 °F 70% 30.07 in 10.0 mi NNE 4.6 mph - N/A   Mostly Cloudy
6:55 PM 78.8 °F - 69.8 °F 74% 30.09 in 10.0 mi ESE 8.1 mph - N/A   Overcast
7:15 PM 75.2 °F - 69.8 °F 83% 30.08 in 10.0 mi ESE 9.2 mph - N/A   Mostly Cloudy
7:35 PM 75.2 °F - 69.8 °F 83% 30.06 in 10.0 mi SSE 6.9 mph - N/A   Scattered Clouds
7:55 PM 75.2 °F - 69.8 °F 83% 30.05 in 10.0 mi Calm Calm - N/A   Clear
8:15 PM 73.4 °F - 71.6 °F 94% 30.06 in 10.0 mi Calm Calm - N/A   Clear
8:35 PM 73.4 °F - 71.6 °F 94% 30.06 in 10.0 mi Calm Calm - N/A   Clear
8:55 PM 73.4 °F - 71.6 °F 94% 30.07 in 10.0 mi SE 3.5 mph - N/A   Clear
9:15 PM 73.4 °F - 71.6 °F 94% 30.07 in 10.0 mi Calm Calm - N/A   Clear
9:35 PM 73.4 °F - 71.6 °F 94% 30.08 in 10.0 mi Calm Calm - N/A   Clear
9:55 PM 73.4 °F - 71.6 °F 94% 30.09 in 10.0 mi Calm Calm - N/A   Clear
10:15 PM 73.4 °F - 71.6 °F 94% 30.10 in 10.0 mi Calm Calm - N/A   Clear
10:35 PM 73.4 °F - 71.6 °F 94% 30.09 in 10.0 mi Calm Calm - N/A   Clear
10:55 PM 73.4 °F - 71.6 °F 94% 30.09 in 10.0 mi Calm Calm - N/A   Clear
11:35 PM 73.4 °F - 71.6 °F 94% 30.10 in 10.0 mi Calm Calm - N/A   Clear
11:55 PM 73.4 °F - 71.6 °F 94% 30.10 in 10.0 mi Calm Calm - N/A   Clear